Torna al catalogo

STARLINK-11371

AttivoComunicazioniVLEO
NORAD 62879·PAYLOAD·🇺🇸 United States

Lanciato Feb 4, 2025 da Cape Canaveral Space Force Station

Loading…

Prossimi Passaggi (prossime 24 ore)

TLE

AggiornatoSource: CelesTrak SupGP

Epoca: Sep 14, 2026, 20:40 UTC

1 62879C 25024A   26257.86159722 -.00043112  00000+0 -33497-3 0  2575
2 62879  42.9999 121.4850 0001572 275.5136 140.4360 15.70851317    18

Traccia STARLINK-11371 in tempo reale con AllMySat

Download on the App Store